Tracking 19638 objects as of 20-Apr-2019
HD Live streaming from Space Station
objects crossing your sky now

ST5-A

Track ST5-A now!
10-day predictions
ST5-A is classified as:


NORAD ID: 28980
Int'l Code: 2006-008A
Perigee: 309.0 km
Apogee: 3,714.0 km
Inclination: 105.5 °
Period: 127.3 minutes
Semi major axis: 8382 km
RCS: 0.3025 m2 (medium)
Launch date: March 22, 2006
Source: United States (US)
Launch site: Pegasus launched from Western Range Air Space (WRAS)
aabbcc
Your satellite tracking list
Your tracking list is empty




NASA's NSSDC Master Catalog

Two Line Element Set (TLE):
1 28980U 06008A   19109.66796492 +.00005851 +00000-0 +27287-3 0  9998
2 28980 105.5224 009.0471 2031041 015.2639 350.1386 11.31207251519022
Source of the keplerian elements: AFSPC